This is the latest recevied weather packets stored in our database for station/object KB1ZFK. If no packets are shown the sender has not sent any weather packets the latest 1 day(s).
| Time | Temp. | Humidity | Pressure | Rain* | Wind** | Luminosity | Snow |
|---|---|---|---|---|---|---|---|
| 1778059769 | 12.78° C | 86% | 1008.8 hPa | 0 mm | - | 0 W/m² | - |
| 1778058558 | 13.33° C | 86% | 1008.9 hPa | 0 mm | - | 0 W/m² | - |
| 1778057952 | 13.33° C | 84% | 1008.7 hPa | 0 mm | - | 0 W/m² | - |
| 1778057649 | 13.33° C | 84% | 1008.7 hPa | 0 mm | - | 0 W/m² | - |
| 1778057345 | 13.89° C | 83% | 1008.9 hPa | 0 mm | - | 0 W/m² | - |
| 1778057042 | 13.89° C | 82% | 1008.7 hPa | 0 mm | - | 0 W/m² | - |
| 1778056738 | 14.44° C | 80% | 1008.8 hPa | 0 mm | - | 0 W/m² | - |
| 1778056436 | 14.44° C | 80% | 1008.8 hPa | 0 mm | - | 0 W/m² | - |
| 1778056133 | 15° C | 79% | 1008.9 hPa | 0 mm | - | 0 W/m² | - |
| 1778055830 | 15.56° C | 77% | 1008.8 hPa | 0 mm | - | 0 W/m² | - |
| 1778054618 | 15.56° C | 75% | 1008.8 hPa | 0 mm | - | 0 W/m² | - |
| 1778054316 | 15.56° C | 75% | 1008.9 hPa | 0 mm | - | 0 W/m² | - |
| 1778054013 | 16.11° C | 75% | 1008.7 hPa | 0 mm | - | 0 W/m² | - |
| 1778053710 | 16.11° C | 74% | 1008.8 hPa | 0 mm | - | 0 W/m² | - |
| 1778053104 | 16.11° C | 73% | 1008.8 hPa | 0 mm | - | 0 W/m² | - |
| 1778052802 | 16.11° C | 73% | 1008.9 hPa | 0 mm | - | 0 W/m² | - |
| 1778052196 | 16.67° C | 72% | 1008.6 hPa | 0 mm | - | 0 W/m² | - |
| 1778051894 | 16.11° C | 72% | 1008.8 hPa | 0 mm | - | 0 W/m² | - |
| 1778051592 | 16.11° C | 72% | 1008.8 hPa | 0 mm | - | 0 W/m² | - |
| 1778051288 | 16.67° C | 72% | 1008.8 hPa | 0 mm | - | 0 W/m² | - |
| 1778050683 | 16.67° C | 70% | 1008.5 hPa | 0 mm | - | 0 W/m² | - |
| 1778049772 | 17.22° C | 69% | 1008.4 hPa | 0 mm | - | 0 W/m² | - |
| 1778049167 | 17.22° C | 69% | 1008.2 hPa | 0 mm | - | 0 W/m² | - |
| 1778047956 | 16.67° C | 70% | 1008.5 hPa | 0 mm | - | 0 W/m² | - |
| 1778047654 | 16.67° C | 70% | 1008.4 hPa | 0 mm | - | 0 W/m² | - |
* Rain latest hour (hover to see other rain measurements)
** Current wind speed in m/s (hover to see current wind gust speed)